Hourly Weather Roundup
Issued by NWS Central Illinois

Home | Current Version | Previous Version | Text Only | Print | Product List | Glossary On
Versions: 1 2 3 4 5 6 7 8 9 10 11 12 13 14 15 16 17 18 19 20 21 22 23 24 25 26 27 28 29 30 31 32 33 34 35 36 37 38 39 40 41 42 43 44 45 46 47 48 49 50
000
NZUS43 KILX 180710
HWRILX

AREA WEATHER ROUNDUP
NATIONAL WEATHER SERVICE, LINCOLN IL
100 AM CST THU DEC 18 2014


CITY           SKY/WX    TMP DP  RH WIND       PRES   REMARKS
BLOOMINGTON    MOCLDY    24  21  88 CALM      30.28F
CHAMPAIGN      CLOUDY    26  18  71 N5        30.28F WCI  20
DECATUR        CLOUDY    24  20  84 SW5       30.31S WCI  18
FLORA          CLOUDY    27  23  85 NE5       30.32S WCI  21
GALESBURG      CLOUDY    17  15  93 CALM      30.29F
JACKSONVILLE   CLOUDY    27  23  86 CALM      30.30F
LACON          PTCLDY    19  16  88 CALM      30.29F
LAWRENCEVILLE  CLOUDY    26  21  81 NE8       30.31F WCI  18
LITCHFIELD     CLOUDY    24  20  85 E3        30.31R
$$


CITY           SKY/WX    TMP DP  RH WIND       PRES   REMARKS
LINCOLN        CLOUDY    23  20  90 CALM      30.33R
MACOMB         CLOUDY    21  20  95 CALM      30.33R
MATTOON        CLOUDY    24  17  74 E3        30.29S
MT CARMEL AP   CLOUDY    30  23  74 NE6       30.31F WCI  24
OLNEY-NOBLE AP CLOUDY    27  23  86 CALM      30.33R
PARIS          CLOUDY    26  21  81 CALM      30.31S
PEORIA         CLOUDY    22  18  85 CALM      30.30F
PONTIAC        PTCLDY    19  18  93 CALM      30.30F
RANTOUL        CLOUDY    27  19  73 CALM      30.29F
ROBINSON       CLOUDY    26  22  85 NE5       30.34R WCI  20
SPRINGFIELD    CLOUDY    25  20  81 CALM      30.33R
TAYLORVILLE    CLOUDY    23  21  93 CALM      30.32R
$$

...REGIONAL REPORTS...


CITY           SKY/WX    TMP DP  RH WIND       PRES   REMARKS
CHICAGO O`HARE CLOUDY    24  15  68 N8        30.28F WCI  15
KANKAKEE       CLOUDY    25  19  76 NW5       30.30R WCI  19
MOLINE         MOCLDY    17  13  84 NE3       30.29F
MOUNT VERNON   CLOUDY    28  21  74 NE6       30.31F WCI  22
PITTSFIELD     CLOUDY    27  23  86 NE3       30.30F
QUINCY         CLOUDY    25  21  85 NE5       30.28F WCI  19
ROCKFORD       CLOUDY    22  14  71 N6        30.31F WCI  14
$$


CITY           SKY/WX    TMP DP  RH WIND       PRES   REMARKS
BURLINGTON     MIX PCPN  21  17  84 CALM      30.30S
CEDAR RAPIDS   PTCLDY    12  11  95 CALM      30.28S
DES MOINES     CLOUDY    23  16  74 CALM      30.29F
KIRKSVILLE     CLOUDY    27  21  78 E3        30.29R
OTTUMWA        MOCLDY    20  15  81 CALM      30.29F
ST LOUIS       CLOUDY    31  24  75 E6        30.30F WCI  25
$$


CITY           SKY/WX    TMP DP  RH WIND       PRES   REMARKS
TERRE HAUTE    CLOUDY    25  18  74 N3        30.31S
EVANSVILLE     CLOUDY    31  24  75 NE5       30.32R WCI  26
INDIANAPOLIS   CLOUDY    24  18  77 N3        30.27F
LAFAYETTE      CLOUDY    24  18  77 W5        30.30S WCI  18
MADISON        CLEAR     17  13  84 CALM      30.28F
MILWAUKEE      CLEAR     21  13  71 NW9       30.26F WCI  11
$$




USA.gov is the U.S. government's official web portal to all federal, state and local government web resources and services.